Terminal Aerodrome Forecast
Issued by NWS Newport/Morehead City, NC

Home | Current Version | Previous Version | Graphics & Text | Print | Product List | Glossary On
Versions: 1 2 3 4 5 6 7 8 9 10 11 12 13 14 15 16 17 18 19 20
000
FTUS42 KMHX 281700
TAFEWN
TAF
KEWN 281737Z 2818/2918 05006KT P6SM FEW035 SCT250
     FM290900 00000KT 3SM BR BKN250
     FM291200 01005KT P6SM BKN120=

USA.gov is the U.S. government's official web portal to all federal, state and local government web resources and services.